WA8SIE Weather Reports


Display with metric or nautical units.
time (UTC)temp
F
wind
direction
speed
MPH
gust
MPH
rain 1hr
in
rain 24hr
in
rain mn
in
humidity
%
barometer
mb
20260903202511 94 206 0.0 0.0 0.00 0.00 0.00 51 1010.0
20260903202011 94 186 0.0 0.0 0.00 0.00 0.00 51 1010.0
20260903201512 94 197 4.0 0.0 0.00 0.00 0.00 50 1010.0
20260903201011 94 267 0.0 0.0 0.00 0.00 0.00 51 1010.2
20260903200513 94 267 0.0 0.0 0.00 0.00 0.00 52 1010.2
20260903200011 94 267 0.0 0.0 0.00 0.00 0.00 52 1010.2
20260903195512 94 267 0.0 0.0 0.00 0.00 0.00 55 1010.3
20260903195011 94 268 0.0 0.0 0.00 0.00 0.00 53 1010.3
20260903194512 94 178 0.0 0.0 0.00 0.00 0.00 53 1010.3
20260903194011 94 179 0.0 2.0 0.00 0.00 0.00 51 1010.5
20260903193511 94 179 0.0 0.0 0.00 0.00 0.00 53 1010.5
20260903192511 94 179 0.0 0.0 0.00 0.00 0.00 48 1010.6
20260903192011 96 193 4.0 0.0 0.00 0.00 0.00 47 1010.6
20260903191011 96 355 0.0 0.0 0.00 0.00 0.00 50 1010.9
20260903190511 96 355 0.0 0.0 0.00 0.00 0.00 47 1010.9
20260903190011 96 290 0.0 0.0 0.00 0.00 0.00 49 1010.9
20260903185511 97 122 0.0 0.0 0.00 0.00 0.00 49 1011.0
20260903184511 96 200 0.0 0.0 0.00 0.00 0.00 48 1011.0
20260903183510 95 200 3.0 0.0 0.00 0.00 0.00 50 1011.1
20260903183010 95 296 0.0 0.0 0.00 0.00 0.00 51 1011.1
20260903182511 94 311 0.0 4.0 0.00 0.00 0.00 53 1011.3
20260903182010 94 309 0.0 0.0 0.00 0.00 0.00 52 1011.3
20260903181511 94 309 0.0 0.0 0.00 0.00 0.00 53 1011.3
20260903180011 95 292 0.0 6.0 0.00 0.00 0.00 50 1011.4
20260903175511 96 16 0.0 0.0 0.00 0.00 0.00 51 1011.5
20260903175010 96 222 1.0 0.0 0.00 0.00 0.00 51 1011.5
20260903174511 96 47 0.0 0.0 0.00 0.00 0.00 50 1011.5
20260903174011 95 293 0.0 0.0 0.00 0.00 0.00 51 1011.7
20260903173011 95 297 0.0 0.0 0.00 0.00 0.00 51 1011.7
20260903172511 95 326 0.0 0.0 0.00 0.00 0.00 51 1011.7
20260903172011 94 262 0.0 0.0 0.00 0.00 0.00 53 1011.7
20260903171511 94 226 0.0 0.0 0.00 0.00 0.00 53 1011.7
20260903171010 94 250 0.0 5.0 0.00 0.00 0.00 56 1011.8
20260903170011 93 1 0.0 0.0 0.00 0.00 0.00 53 1011.8
20260903165012 94 198 0.0 0.0 0.00 0.00 0.00 56 1012.2
20260903164512 93 201 0.0 4.0 0.00 0.00 0.00 57 1012.2
20260903163510 93 172 0.0 0.0 0.00 0.00 0.00 55 1012.3
20260903163010 93 188 3.0 0.0 0.00 0.00 0.00 56 1012.3
20260903162510 93 188 0.0 0.0 0.00 0.00 0.00 58 1012.3
20260903161510 92 188 0.0 0.0 0.00 0.00 0.00 60 1012.3
20260903161010 92 189 0.0 0.0 0.00 0.00 0.00 59 1012.3
20260903160512 91 188 0.0 0.0 0.00 0.00 0.00 61 1012.3
20260903160010 91 189 0.0 0.0 0.00 0.00 0.00 62 1012.3
20260903155010 91 188 0.0 0.0 0.00 0.00 0.00 63 1012.4
20260903154510 91 133 0.0 0.0 0.00 0.00 0.00 62 1012.4
20260903154012 90 207 2.0 0.0 0.00 0.00 0.00 63 1012.5
20260903153512 90 207 0.0 0.0 0.00 0.00 0.00 65 1012.5
20260903153011 90 207 0.0 2.0 0.00 0.00 0.00 66 1012.5
20260903152512 89 207 0.0 0.0 0.00 0.00 0.00 64 1012.7
20260903152010 89 300 0.0 0.0 0.00 0.00 0.00 66 1012.7
20260903151510 88 300 0.0 0.0 0.00 0.00 0.00 67 1012.7
20260903151012 88 191 0.0 0.0 0.00 0.00 0.00 68 1012.6
20260903150510 87 191 0.0 4.0 0.00 0.00 0.00 68 1012.6
20260903150010 87 191 0.0 0.0 0.00 0.00 0.00 67 1012.6
20260903145510 87 307 0.0 0.0 0.00 0.00 0.00 69 1012.7
20260903145010 87 309 0.0 0.0 0.00 0.00 0.00 68 1012.7
20260903144010 86 319 0.0 3.0 0.00 0.00 0.00 70 1012.8
20260903143510 86 319 0.0 0.0 0.00 0.00 0.00 70 1012.8
20260903143011 86 200 0.0 0.0 0.00 0.00 0.00 72 1012.8
20260903142011 85 200 0.0 0.0 0.00 0.00 0.00 73 1012.7
20260903141511 84 200 0.0 3.0 0.00 0.00 0.00 74 1012.7
20260903141013 84 200 0.0 0.0 0.00 0.00 0.00 75 1012.7
20260903140511 84 200 1.0 0.0 0.00 0.00 0.00 75 1012.7
20260903140011 84 123 0.0 0.0 0.00 0.00 0.00 78 1012.7
20260903135511 83 123 0.0 0.0 0.00 0.00 0.00 78 1012.8
20260903135011 83 124 0.0 0.0 0.00 0.00 0.00 79 1012.8
20260903134511 82 124 0.0 0.0 0.00 0.00 0.00 83 1012.8
20260903133511 81 124 0.0 0.0 0.00 0.00 0.00 82 1012.9
20260903133011 81 124 0.0 0.0 0.00 0.00 0.00 84 1012.9
20260903132513 80 123 0.0 0.0 0.00 0.00 0.00 86 1013.2
20260903131511 78 123 0.0 0.0 0.00 0.00 0.00 89 1013.2
20260903131013 78 124 2.0 0.0 0.00 0.00 0.00 90 1013.3
20260903130513 77 124 0.0 0.0 0.00 0.00 0.00 91 1013.3
20260903130011 77 123 0.0 2.0 0.00 0.00 0.00 93 1013.3
20260903125511 76 124 0.0 0.0 0.00 0.00 0.00 94 1013.3
20260903125012 76 124 0.0 0.0 0.00 0.00 0.00 95 1013.3
20260903124511 76 123 0.0 0.0 0.00 0.00 0.00 98 1013.3
20260903123511 75 198 0.0 0.0 0.00 0.00 0.00 100 1013.4
20260903123011 75 199 0.0 0.0 0.00 0.00 0.00 100 1013.4
20260903122511 74 199 0.0 0.0 0.00 0.00 0.00 100 1013.4
20260903122011 74 199 0.0 0.0 0.00 0.00 0.00 100 1013.4
20260903121511 74 199 0.0 0.0 0.00 0.00 0.00 100 1013.4
20260903121011 73 198 0.0 0.0 0.00 0.00 0.00 100 1013.3
20260903120511 73 198 0.0 0.0 0.00 0.00 0.00 100 1013.3
20260903120011 73 198 0.0 1.0 0.00 0.00 0.00 100 1013.3
20260903115512 72 198 0.0 1.0 0.00 0.00 0.00 100 1013.3
20260903115011 72 199 0.0 2.0 0.00 0.00 0.00 100 1013.3
20260903114511 72 199 0.0 2.0 0.00 0.00 0.00 100 1013.3
20260903114013 72 199 1.0 2.0 0.00 0.00 0.00 100 1013.2
20260903113511 72 198 0.0 0.0 0.00 0.00 0.00 100 1013.2
20260903113011 72 198 0.0 0.0 0.00 0.00 0.00 100 1013.2
20260903112511 72 198 0.0 0.0 0.00 0.00 0.00 100 1013.0
20260903112010 72 198 0.0 0.0 0.00 0.00 0.00 100 1013.0
20260903111511 72 198 0.0 0.0 0.00 0.00 0.00 100 1013.0
20260903111011 72 198 0.0 0.0 0.00 0.00 0.00 100 1012.8
20260903110511 72 199 0.0 0.0 0.00 0.00 0.00 100 1012.8
20260903110012 72 198 0.0 0.0 0.00 0.00 0.00 100 1012.8
20260903105512 72 199 0.0 0.0 0.00 0.00 0.00 100 1012.6
20260903105011 72 199 0.0 2.0 0.00 0.00 0.00 100 1012.6
20260903104011 72 198 2.0 2.0 0.00 0.00 0.00 100 1012.5
20260903103510 72 199 0.0 0.0 0.00 0.00 0.00 100 1012.5
20260903103011 72 199 0.0 0.0 0.00 0.00 0.00 100 1012.5
20260903102512 72 198 0.0 0.0 0.00 0.00 0.00 100 1012.4
20260903101511 72 198 0.0 0.0 0.00 0.00 0.00 100 1012.4
20260903101011 72 198 0.0 2.0 0.00 0.00 0.00 100 1012.3
20260903100510 72 199 0.0 2.0 0.00 0.00 0.00 100 1012.3
20260903100011 72 198 0.0 3.0 0.00 0.00 0.00 100 1012.3
20260903095511 72 199 0.0 3.0 0.00 0.00 0.00 100 1012.4
20260903095011 72 199 0.0 0.0 0.00 0.00 0.00 100 1012.4
20260903094511 72 199 0.0 0.0 0.00 0.00 0.00 100 1012.4
20260903094011 72 198 0.0 0.0 0.00 0.00 0.00 100 1012.3
20260903093512 72 199 0.0 0.0 0.00 0.00 0.00 100 1012.3
20260903093011 72 199 0.0 0.0 0.00 0.00 0.00 100 1012.3
20260903092511 72 199 0.0 0.0 0.00 0.00 0.00 100 1012.2
20260903092011 72 198 0.0 0.0 0.00 0.00 0.00 100 1012.2
20260903091511 72 199 0.0 0.0 0.00 0.00 0.00 100 1012.2
20260903091010 73 198 0.0 0.0 0.00 0.00 0.00 100 1012.0
20260903090511 73 198 0.0 0.0 0.00 0.00 0.00 100 1012.0
20260903090010 73 198 0.0 0.0 0.00 0.00 0.00 100 1012.0
20260903085011 73 198 0.0 0.0 0.00 0.00 0.00 100 1012.0
20260903084512 73 198 0.0 0.0 0.00 0.00 0.00 100 1012.0
20260903084010 73 198 0.0 0.0 0.00 0.00 0.00 100 1012.0
20260903083511 73 199 0.0 0.0 0.00 0.00 0.00 100 1012.0
20260903083010 73 198 0.0 0.0 0.00 0.00 0.00 100 1012.0
20260903082511 73 199 0.0 0.0 0.00 0.00 0.00 100 1012.1
20260903082010 73 199 0.0 0.0 0.00 0.00 0.00 100 1012.1
20260903081510 73 199 0.0 0.0 0.00 0.00 0.00 100 1012.1
20260903081011 73 199 0.0 0.0 0.00 0.00 0.00 100 1012.1
20260903080510 73 199 0.0 0.0 0.00 0.00 0.00 100 1012.1
20260903075510 74 198 0.0 2.0 0.00 0.00 0.00 100 1012.1
20260903074511 74 199 0.0 0.0 0.00 0.00 0.00 100 1012.1
20260903074010 74 199 0.0 0.0 0.00 0.00 0.00 100 1012.0
20260903073510 74 199 0.0 0.0 0.00 0.00 0.00 100 1012.0
20260903073010 74 199 0.0 0.0 0.00 0.00 0.00 100 1012.0
20260903072512 74 198 0.0 0.0 0.00 0.00 0.00 100 1011.9
20260903072010 74 199 0.0 0.0 0.00 0.00 0.00 100 1011.9
20260903071012 74 199 0.0 0.0 0.00 0.00 0.00 100 1011.9
20260903070512 74 199 0.0 0.0 0.00 0.00 0.00 100 1011.9
20260903065510 74 199 0.0 0.0 0.00 0.00 0.00 100 1011.9
20260903064512 74 199 0.0 0.0 0.00 0.00 0.00 100 1011.9
20260903064010 75 199 0.0 0.0 0.00 0.00 0.00 100 1011.7
20260903063512 75 199 0.0 0.0 0.00 0.00 0.00 100 1011.7
20260903062510 75 199 0.0 0.0 0.00 0.00 0.00 100 1011.8
20260903062010 75 199 0.0 0.0 0.00 0.00 0.00 100 1011.8
20260903061512 75 199 0.0 0.0 0.00 0.00 0.00 100 1011.8
20260903061010 75 199 0.0 0.0 0.00 0.00 0.00 100 1011.8
20260903060510 75 198 0.0 0.0 0.00 0.00 0.00 100 1011.8
20260903060011 75 199 0.0 0.0 0.00 0.00 0.00 100 1011.8
20260903055513 75 199 0.0 0.0 0.00 0.00 0.00 100 1011.8
20260903055011 75 198 0.0 0.0 0.00 0.00 0.00 100 1011.8
20260903054013 75 198 0.0 0.0 0.00 0.00 0.00 100 1011.8
20260903053511 75 198 0.0 0.0 0.00 0.00 0.00 100 1011.8
20260903053011 75 199 0.0 0.0 0.00 0.00 0.00 100 1011.8
20260903052511 75 199 0.0 0.0 0.00 0.00 0.00 100 1011.8
20260903051511 76 198 0.0 0.0 0.00 0.00 0.00 99 1011.8
20260903051011 76 198 0.0 0.0 0.00 0.00 0.00 99 1011.8
20260903050511 76 199 0.0 0.0 0.00 0.00 0.00 99 1011.8
20260903050011 76 199 0.0 0.0 0.00 0.00 0.00 99 1011.8
20260903045511 76 199 0.0 0.0 0.00 0.00 0.00 99 1011.8
20260903045011 76 199 0.0 0.0 0.00 0.00 0.00 99 1011.8
20260903044511 76 198 0.0 0.0 0.00 0.00 0.00 99 1011.8
20260903044011 76 199 0.0 0.0 0.00 0.00 0.00 99 1011.7
20260903043511 76 198 0.0 0.0 0.00 0.00 0.00 98 1011.7
20260903043011 76 198 0.0 3.0 0.00 0.00 0.00 98 1011.7
20260903042013 76 199 0.0 0.0 0.00 0.00 0.00 98 1011.7
20260903041511 76 198 0.0 0.0 0.00 0.00 0.00 98 1011.7
20260903041011 76 198 0.0 0.0 0.00 0.00 0.00 98 1011.8
20260903040511 76 199 0.0 0.0 0.00 0.00 0.00 97 1011.8
20260903040011 77 198 0.0 2.0 0.00 0.00 0.00 97 1011.8
20260903035511 77 198 0.0 2.0 0.00 0.00 0.00 97 1011.8
20260903035011 77 199 0.0 0.0 0.00 0.00 0.00 97 1011.8
20260903034511 77 199 0.0 0.0 0.00 0.00 0.00 97 1011.8
20260903034012 77 198 0.0 0.0 0.00 0.00 0.00 97 1011.9
20260903033512 77 198 0.0 0.0 0.00 0.00 0.00 96 1011.9
20260903033011 77 199 0.0 0.0 0.00 0.00 0.00 96 1011.9
20260903032511 77 199 0.0 0.0 0.00 0.00 0.00 96 1011.9
20260903031511 77 199 0.0 0.0 0.00 0.00 0.00 95 1011.9
20260903031011 77 199 0.0 0.0 0.00 0.00 0.00 95 1012.0
20260903030512 78 199 0.0 0.0 0.00 0.00 0.00 95 1012.0
20260903030011 78 199 0.0 0.0 0.00 0.00 0.00 95 1012.0
20260903025511 78 199 0.0 0.0 0.00 0.00 0.00 95 1011.9
20260903025012 78 199 0.0 0.0 0.00 0.00 0.00 95 1011.9
20260903024510 78 198 0.0 0.0 0.00 0.00 0.00 95 1011.9
20260903024011 78 199 0.0 0.0 0.00 0.00 0.00 94 1011.9
20260903023511 78 199 0.0 0.0 0.00 0.00 0.00 94 1011.9
20260903023011 78 199 0.0 0.0 0.00 0.00 0.00 94 1011.9
20260903022510 78 199 0.0 0.0 0.00 0.00 0.00 94 1011.8
20260903022012 78 198 0.0 0.0 0.00 0.00 0.00 94 1011.8
20260903021011 79 199 0.0 1.0 0.00 0.00 0.00 93 1011.9
20260903020510 79 199 0.0 1.0 0.00 0.00 0.00 92 1011.9
20260903020011 79 199 0.0 0.0 0.00 0.00 0.00 92 1011.9
20260903015011 79 199 0.0 0.0 0.00 0.00 0.00 91 1012.0
20260903014511 80 199 0.0 0.0 0.00 0.00 0.00 91 1012.0
20260903014012 80 199 0.0 0.0 0.00 0.00 0.00 91 1011.9
20260903013512 80 199 0.0 0.0 0.00 0.00 0.00 91 1011.9
20260903013010 80 199 0.0 0.0 0.00 0.00 0.00 90 1011.9
20260903012511 80 199 0.0 0.0 0.00 0.00 0.00 90 1011.8
20260903012011 80 199 0.0 0.0 0.00 0.00 0.00 89 1011.8
20260903011510 80 198 0.0 0.0 0.00 0.00 0.00 88 1011.8
20260903011011 81 198 0.0 0.0 0.00 0.00 0.00 88 1011.6
20260903010510 81 199 0.0 0.0 0.00 0.00 0.00 87 1011.6
20260903010011 81 199 0.0 0.0 0.00 0.00 0.00 87 1011.6
20260903005512 81 199 0.0 0.0 0.00 0.00 0.00 86 1011.5
20260903005011 81 199 0.0 0.0 0.00 0.00 0.00 85 1011.5
20260903004512 81 198 0.0 0.0 0.00 0.00 0.00 84 1011.5
20260903004011 82 199 0.0 1.0 0.00 0.00 0.00 83 1011.4
20260903003510 82 199 0.0 1.0 0.00 0.00 0.00 83 1011.4
20260903003010 82 199 0.0 0.0 0.00 0.00 0.00 82 1011.4
20260903002511 83 198 0.0 0.0 0.00 0.00 0.00 81 1011.4
20260903002010 83 198 0.0 1.0 0.00 0.00 0.00 79 1011.4
20260903001510 83 199 0.0 3.0 0.00 0.00 0.00 79 1011.4
20260903001011 83 199 0.0 3.0 0.00 0.00 0.00 78 1011.4
20260903000010 84 198 0.0 0.0 0.00 0.00 0.00 77 1011.4
20260902235510 84 199 0.0 0.0 0.00 0.00 0.00 77 1011.3
20260902235011 84 199 0.0 0.0 0.00 0.00 0.00 76 1011.3
20260902234510 84 198 0.0 0.0 0.00 0.00 0.00 76 1011.3
20260902233510 85 198 0.0 0.0 0.00 0.00 0.00 73 1011.3
20260902233010 85 199 0.0 0.0 0.00 0.00 0.00 71 1011.3
20260902232010 86 198 0.0 0.0 0.00 0.00 0.00 70 1011.3
20260902231010 87 199 0.0 0.0 0.00 0.00 0.00 67 1011.4
20260902230512 87 198 0.0 0.0 0.00 0.00 0.00 65 1011.4
20260902225510 88 199 0.0 0.0 0.00 0.00 0.00 66 1011.4
20260902225010 89 199 0.0 0.0 0.00 0.00 0.00 64 1011.4
20260902224510 89 199 0.0 0.0 0.00 0.00 0.00 63 1011.4
20260902224010 89 198 0.0 0.0 0.00 0.00 0.00 63 1011.3
20260902223510 90 199 0.0 0.0 0.00 0.00 0.00 60 1011.3
20260902222011 91 199 0.0 0.0 0.00 0.00 0.00 60 1011.4
20260902221511 91 199 0.0 0.0 0.00 0.00 0.00 53 1011.4
20260902221010 91 199 0.0 0.0 0.00 0.00 0.00 57 1011.5
20260902220511 91 199 0.0 0.0 0.00 0.00 0.00 53 1011.5
20260902220011 91 199 0.0 1.0 0.00 0.00 0.00 52 1011.5
20260902215511 91 199 0.0 3.0 0.00 0.00 0.00 51 1011.5
20260902215011 92 199 0.0 5.0 0.00 0.00 0.00 51 1011.5
20260902214511 92 178 0.0 5.0 0.00 0.00 0.00 49 1011.5
20260902214013 92 197 0.0 2.0 0.00 0.00 0.00 50 1011.4
20260902213513 92 198 0.0 4.0 0.00 0.00 0.00 49 1011.4
20260902213011 92 198 0.0 4.0 0.00 0.00 0.00 48 1011.4
20260902212511 92 197 0.0 4.0 0.00 0.00 0.00 49 1011.5
20260902211011 92 180 0.0 3.0 0.00 0.00 0.00 53 1011.8
20260902210511 92 179 0.0 3.0 0.00 0.00 0.00 49 1011.8
20260902210011 92 233 0.0 2.0 0.00 0.00 0.00 49 1011.8
20260902205511 92 301 1.0 2.0 0.00 0.00 0.00 53 1011.9
20260902205011 92 184 0.0 0.0 0.00 0.00 0.00 49 1011.9
20260902204012 92 184 0.0 0.0 0.00 0.00 0.00 55 1011.9
20260902203011 93 304 0.0 0.0 0.00 0.00 0.00 55 1011.9